恒星間天体オウムアムア

1I/'Oumuamua

English version
Home page
Updated on March 28, 2019

---------------------------------------------------------------------

・ プロフィール

符号 1I/2017 U1
発見日 2017年10月18日
発見光度 19.8等
発見者 Pan-STARRS 1 telescope (Haleakala)

・ 写真集

・ 軌道要素

Epoch 2017 Sept. 4.0 TT = JDT 2458000.5
T 2017 Sept.  9.49009 TT                                MPCW
q   0.2553113            (2000.0)            P               Q
z  -0.7811691      Peri.  241.69749     -0.62901428     +0.69396727
 +/-0.0004220      Node    24.59939     +0.51032267     +0.70858562
e   1.1994413      Incl.  122.68444     -0.58643995     -0.12773348
From 122 observations 2017 Oct. 14-Nov. 17, mean residual 0".4.

・ 星図

・ 光度変化

        H = 21.8  G = 0.15

        ※ 緑色の曲線は、m1 = 22.0 + 5 logΔ + 10.0 log r の光度曲線です。

---------------------------------------------------------------------

軌道要素はM.P.E.C. 2017-U234に掲載されたものです。
星図はステラナビゲータ Ver.10 (アストロアーツ) で作成したものです。
光度グラフはComet for Windowsで作成したものです。

---------------------------------------------------------------------

Copyright(C) Seiichi Yoshida (comet@aerith.net). All rights reserved.